Charles City, IA

12:26 PM CDT on April 30, 2017 (GMT -0500)
Charles City Municipal

Weather History for KCCY - November, 2011

Change the Weather History Date:

Thursday, November 10, 2011

  Actual Average Record
Temperature  
Mean Temperature 34 °F -  
Max Temperature 39 °F 42 °F 71 °F (1949)
Min Temperature 28 °F 28 °F 9 °F (1979)
Degree Days  
Heating Degree Days 32    
Moisture  
Dew Point 21 °F    
Average Humidity 60    
Maximum Humidity 74    
Minimum Humidity 45    
Precipitation  
Precipitation 0.00 in - - ()
Sea Level Pressure  
Sea Level Pressure 30.04 in    
Wind  
Wind Speed 14 mph (WNW)    
Max Wind Speed 21 mph    
Max Gust Speed 30 mph    
Visibility 10 miles    
Events Rain    
Averages and records for this station are not official NWS values.
T = Trace of Precipitation, MM = Missing Value Source: NWS Daily Summary

Daily Weather History Graph

Daily Weather History Graph

Search for Another Location

Airport or City:

Trip Planner

Search our weather history database for the weather conditions in past years. The results will help you decide how hot, cold, wet, or windy it might be!

Date:

Astronomy

Nov. 10, 2011 Rise Set
Actual Time 6:56 AM CST 4:51 PM CST
Civil Twilight 6:26 AM CST 5:22 PM CST
Nautical Twilight 5:52 AM CST 5:56 PM CST
Astronomical Twilight 5:18 AM CST 6:29 PM CST
Moon 4:38 PM CST (11/10) 6:50 AM CST (11/10)
Length of Visible Light 10h 55m
Length of Day
9h 55m
Full, 100% of the Moon is Illuminated
Nov 10
Full
Nov 10
Full
Nov 18
Last Quarter
Nov 25
New
Dec 2
First Quarter

Hourly Weather History & Observations

Time (CST) Temp. Windchill Dew Point Humidity Pressure Visibility Wind Dir Wind Speed Gust Speed Precip Events Conditions
12:15 AM 35.6 °F 25.5 °F 21.2 °F 56% 30.00 in 10.0 mi West 17.3 mph 21.9 mph N/A   Mostly Cloudy
12:35 AM 35.6 °F 25.2 °F 21.2 °F 56% 30.00 in 10.0 mi WNW 18.4 mph 25.3 mph N/A   Scattered Clouds
1:15 AM 35.6 °F 24.8 °F 23.0 °F 60% 30.00 in 10.0 mi WNW 19.6 mph 27.6 mph N/A   Scattered Clouds
1:35 AM 35.6 °F 25.5 °F 23.0 °F 60% 30.00 in 10.0 mi WNW 17.3 mph 20.7 mph N/A   Mostly Cloudy
1:55 AM 35.6 °F 26.2 °F 23.0 °F 60% 30.00 in 10.0 mi WNW 15.0 mph 25.3 mph N/A   Overcast
2:15 AM 35.6 °F 25.5 °F 23.0 °F 60% 30.00 in 10.0 mi WNW 17.3 mph 24.2 mph N/A   Overcast
2:35 AM 35.6 °F 28.0 °F 24.8 °F 65% 30.00 in 10.0 mi NW 10.4 mph 17.3 mph N/A   Overcast
3:15 AM 35.6 °F 25.9 °F 24.8 °F 65% 30.00 in 10.0 mi NW 16.1 mph 24.2 mph N/A Rain Light Rain
3:35 AM 35.6 °F 27.5 °F 24.8 °F 65% 29.99 in 10.0 mi NW 11.5 mph - N/A   Overcast
3:55 AM 33.8 °F 27.0 °F 24.8 °F 70% 29.99 in 10.0 mi NW 8.1 mph - N/A   Overcast
4:15 AM 35.6 °F 27.5 °F 24.8 °F 65% 29.99 in 10.0 mi WNW 11.5 mph 16.1 mph N/A   Overcast
4:35 AM 35.6 °F 25.2 °F 23.0 °F 60% 29.99 in 10.0 mi WNW 18.4 mph 23.0 mph N/A   Overcast
4:55 AM 35.6 °F 24.5 °F 23.0 °F 60% 29.99 in 10.0 mi WNW 20.7 mph 29.9 mph N/A   Overcast
5:15 AM 35.6 °F 25.2 °F 23.0 °F 60% 30.00 in 10.0 mi WNW 18.4 mph 27.6 mph N/A   Overcast
6:15 AM 33.8 °F 24.8 °F 21.2 °F 60% 30.01 in 10.0 mi WNW 12.7 mph 20.7 mph N/A   Overcast
6:35 AM 33.8 °F 23.5 °F 21.2 °F 60% 30.01 in 10.0 mi WNW 16.1 mph 21.9 mph N/A   Overcast
7:15 AM 33.8 °F 23.2 °F 23.0 °F 65% 30.03 in 10.0 mi WNW 17.3 mph - N/A   Overcast
7:35 AM 33.8 °F 23.2 °F 21.2 °F 60% 30.04 in 10.0 mi WNW 17.3 mph 23.0 mph N/A   Overcast
7:55 AM 32.0 °F 20.8 °F 21.2 °F 64% 30.04 in 10.0 mi WNW 17.3 mph 21.9 mph N/A   Overcast
8:35 AM 33.8 °F 23.5 °F 23.0 °F 65% 30.05 in 10.0 mi WNW 16.1 mph 23.0 mph N/A   Overcast
8:55 AM 33.8 °F 22.8 °F 23.0 °F 65% 30.06 in 10.0 mi WNW 18.4 mph 25.3 mph N/A   Overcast
9:35 AM 35.6 °F 25.9 °F 23.0 °F 60% 30.06 in 10.0 mi WNW 16.1 mph 24.2 mph N/A   Scattered Clouds
9:55 AM 35.6 °F 25.5 °F 23.0 °F 60% 30.06 in 10.0 mi WNW 17.3 mph 25.3 mph N/A   Scattered Clouds
10:15 AM 37.4 °F 27.8 °F 24.8 °F 60% 30.06 in 10.0 mi NW 17.3 mph - N/A   Scattered Clouds
10:35 AM 37.4 °F 28.9 °F 24.8 °F 60% 30.06 in 10.0 mi NW 13.8 mph - N/A   Overcast
10:55 AM 37.4 °F 27.8 °F 24.8 °F 60% 30.06 in 10.0 mi WNW 17.3 mph - N/A   Mostly Cloudy
11:15 AM 37.4 °F 29.3 °F 24.8 °F 60% 30.07 in 10.0 mi WNW 12.7 mph 23.0 mph N/A   Mostly Cloudy
11:35 AM 37.4 °F 28.2 °F 23.0 °F 56% 30.06 in 10.0 mi WNW 16.1 mph 19.6 mph N/A   Mostly Cloudy
11:55 AM 37.4 °F 28.2 °F 21.2 °F 52% 30.06 in 10.0 mi NW 16.1 mph - N/A   Mostly Cloudy
12:15 PM 37.4 °F 28.2 °F 23.0 °F 56% 30.06 in 10.0 mi NW 16.1 mph 25.3 mph N/A   Overcast
12:35 PM 39.2 °F 29.8 °F 21.2 °F 49% 30.06 in 10.0 mi WNW 18.4 mph 24.2 mph N/A   Overcast
12:55 PM 37.4 °F 28.2 °F 21.2 °F 52% 30.06 in 10.0 mi NW 16.1 mph - N/A   Mostly Cloudy
1:15 PM 37.4 °F 28.2 °F 21.2 °F 52% 30.06 in 10.0 mi NW 16.1 mph - N/A   Overcast
1:35 PM 37.4 °F 28.9 °F 21.2 °F 52% 30.06 in 10.0 mi NW 13.8 mph 24.2 mph N/A   Overcast
1:55 PM 39.2 °F 31.2 °F 21.2 °F 49% 30.06 in 10.0 mi WNW 13.8 mph - N/A   Overcast
2:15 PM 39.2 °F 30.8 °F 21.2 °F 49% 30.05 in 10.0 mi WNW 15.0 mph 20.7 mph N/A   Overcast
2:35 PM 39.2 °F 32.0 °F 21.2 °F 49% 30.05 in 10.0 mi WNW 11.5 mph 21.9 mph N/A   Overcast
2:55 PM 39.2 °F 30.8 °F 19.4 °F 45% 30.05 in 10.0 mi NW 15.0 mph - N/A   Overcast
3:15 PM 39.2 °F 32.0 °F 19.4 °F 45% 30.06 in 10.0 mi NW 11.5 mph - N/A   Overcast
3:35 PM 39.2 °F 31.6 °F 19.4 °F 45% 30.06 in 10.0 mi NW 12.7 mph 21.9 mph N/A   Overcast
3:55 PM 39.2 °F 32.0 °F 19.4 °F 45% 30.06 in 10.0 mi NW 11.5 mph 18.4 mph N/A   Overcast
4:15 PM 39.2 °F 32.0 °F 19.4 °F 45% 30.06 in 10.0 mi NW 11.5 mph - N/A   Overcast
4:35 PM 37.4 °F 29.8 °F 19.4 °F 48% 30.06 in 10.0 mi NW 11.5 mph 17.3 mph N/A   Overcast
4:55 PM 35.6 °F 29.9 °F 19.4 °F 52% 30.06 in 10.0 mi NW 6.9 mph - N/A   Scattered Clouds
5:15 PM 35.6 °F 29.2 °F 19.4 °F 52% 30.06 in 10.0 mi NW 8.1 mph - N/A   Mostly Cloudy
5:35 PM 33.8 °F 27.7 °F 21.2 °F 60% 30.05 in 10.0 mi NW 6.9 mph - N/A   Mostly Cloudy
5:55 PM 33.8 °F 28.6 °F 21.2 °F 60% 30.05 in 10.0 mi WNW 5.8 mph - N/A   Scattered Clouds
6:15 PM 33.8 °F 28.6 °F 21.2 °F 60% 30.05 in 10.0 mi WNW 5.8 mph - N/A   Scattered Clouds
6:35 PM 32.0 °F 27.5 °F 19.4 °F 60% 30.05 in 10.0 mi West 4.6 mph - N/A   Clear
6:55 PM 30.2 °F 26.7 °F 19.4 °F 64% 30.05 in 10.0 mi West 3.5 mph - N/A   Clear
7:15 PM 30.2 °F 25.4 °F 21.2 °F 69% 30.05 in 10.0 mi West 4.6 mph - N/A   Clear
7:35 PM 30.2 °F 26.7 °F 19.4 °F 64% 30.04 in 10.0 mi West 3.5 mph - N/A   Clear
7:55 PM 30.2 °F 25.4 °F 19.4 °F 64% 30.04 in 10.0 mi West 4.6 mph - N/A   Clear
8:15 PM 28.4 °F 23.3 °F 19.4 °F 69% 30.04 in 10.0 mi West 4.6 mph - N/A   Clear
8:35 PM 28.4 °F 23.3 °F 19.4 °F 69% 30.05 in 10.0 mi West 4.6 mph - N/A   Clear
8:55 PM 28.4 °F 23.3 °F 19.4 °F 69% 30.04 in 10.0 mi West 4.6 mph - N/A   Clear
9:15 PM 28.4 °F 24.6 °F 19.4 °F 69% 30.04 in 10.0 mi West 3.5 mph - N/A   Clear
9:35 PM 28.4 °F - 19.4 °F 69% 30.03 in 10.0 mi Calm Calm - N/A   Clear
9:55 PM 28.4 °F - 19.4 °F 69% 30.03 in 10.0 mi Calm Calm - N/A   Clear
10:15 PM 28.4 °F - 19.4 °F 69% 30.02 in 10.0 mi Calm Calm - N/A   Clear
10:35 PM 28.4 °F - 21.2 °F 74% 30.02 in 10.0 mi Calm Calm - N/A   Clear
10:55 PM 28.4 °F 24.6 °F 19.4 °F 69% 30.01 in 10.0 mi SSW 3.5 mph - N/A   Clear
11:15 PM 28.4 °F 22.2 °F 19.4 °F 69% 30.01 in 10.0 mi SW 5.8 mph - N/A   Clear
11:35 PM 28.4 °F 24.6 °F 19.4 °F 69% 30.01 in 10.0 mi SW 3.5 mph - N/A   Clear